Time,TemperatureF,DewpointF,PressureIn,WindDirection,WindDirectionDegrees,WindSpeedMPH,WindSpeedGustMPH,Humidity,HourlyPrecipIn,Conditions,Clouds,dailyrainin,SoftwareType,DateUTC
2013-04-25 00:09:00,40.4,35.0,30.14,SE,143,2.0,8.0,81,0.00,,,0.00,weatherlink.com 1.10,2013-04-25 04:09:00,
2013-04-25 00:24:00,40.3,35.0,30.15,ESE,107,1.0,12.0,81,0.00,,,0.00,weatherlink.com 1.10,2013-04-25 04:24:00,
2013-04-25 00:39:00,40.2,35.0,30.15,ENE,77,4.0,10.0,81,0.00,,,0.00,weatherlink.com 1.10,2013-04-25 04:39:00,
2013-04-25 00:54:00,39.2,35.0,30.16,ESE,115,9.0,18.0,86,0.00,,,0.00,weatherlink.com 1.10,2013-04-25 04:54:00,
2013-04-25 01:09:00,37.9,36.0,30.16,SE,139,1.0,8.0,91,0.01,,,0.01,weatherlink.com 1.10,2013-04-25 05:09:00,
2013-04-25 01:24:00,37.5,35.0,30.17,SE,141,0.0,6.0,92,0.01,,,0.01,weatherlink.com 1.10,2013-04-25 05:24:00,
2013-04-25 01:40:00,37.4,36.0,30.17,ESE,115,2.0,4.0,93,0.01,,,0.01,weatherlink.com 1.10,2013-04-25 05:40:00,
2013-04-25 01:55:00,36.9,34.0,30.18,ESE,121,3.0,10.0,90,0.02,,,0.02,weatherlink.com 1.10,2013-04-25 05:55:00,
2013-04-25 02:10:00,36.6,35.0,30.18,East,81,1.0,3.0,92,0.01,,,0.02,weatherlink.com 1.10,2013-04-25 06:10:00,
2013-04-25 02:25:00,36.5,35.0,30.18,SE,136,0.0,4.0,93,0.01,,,0.02,weatherlink.com 1.10,2013-04-25 06:25:00,
2013-04-25 02:40:00,36.7,35.0,30.18,SE,127,2.0,3.0,94,0.01,,,0.02,weatherlink.com 1.10,2013-04-25 06:40:00,
2013-04-25 02:55:00,37.0,36.0,30.19,East,101,0.0,4.0,94,0.00,,,0.02,weatherlink.com 1.10,2013-04-25 06:55:00,
2013-04-25 03:10:00,37.2,35.0,30.19,East,95,1.0,3.0,93,0.00,,,0.02,weatherlink.com 1.10,2013-04-25 07:10:00,
2013-04-25 03:25:00,37.4,36.0,30.19,ENE,60,1.0,3.0,93,0.00,,,0.02,weatherlink.com 1.10,2013-04-25 07:25:00,
2013-04-25 03:40:00,37.6,35.0,30.20,ENE,65,1.0,10.0,91,0.00,,,0.02,weatherlink.com 1.10,2013-04-25 07:40:00,
2013-04-25 03:55:00,37.4,35.0,30.20,East,97,4.0,5.0,90,0.00,,,0.02,weatherlink.com 1.10,2013-04-25 07:55:00,
2013-04-25 04:10:00,37.1,35.0,30.21,ENE,61,4.0,5.0,90,0.00,,,0.02,weatherlink.com 1.10,2013-04-25 08:10:00,
2013-04-25 04:25:00,36.7,34.0,30.22,East,97,4.0,5.0,90,0.00,,,0.02,weatherlink.com 1.10,2013-04-25 08:25:00,
2013-04-25 04:40:00,36.5,34.0,30.22,East,101,1.0,5.0,90,0.00,,,0.02,weatherlink.com 1.10,2013-04-25 08:40:00,
2013-04-25 04:55:00,36.5,34.0,30.23,SE,143,1.0,5.0,90,0.00,,,0.02,weatherlink.com 1.10,2013-04-25 08:55:00,
2013-04-25 05:10:00,36.1,34.0,30.22,ENE,72,2.0,4.0,90,0.00,,,0.02,weatherlink.com 1.10,2013-04-25 09:10:00,
2013-04-25 05:25:00,35.8,34.0,30.23,East,101,0.0,1.0,91,0.00,,,0.02,weatherlink.com 1.10,2013-04-25 09:25:00,
2013-04-25 05:40:00,35.8,34.0,30.23,ENE,63,1.0,2.0,91,0.00,,,0.02,weatherlink.com 1.10,2013-04-25 09:40:00,
2013-04-25 05:55:00,35.6,33.0,30.23,ENE,63,0.0,2.0,91,0.00,,,0.02,weatherlink.com 1.10,2013-04-25 09:55:00,
2013-04-25 06:10:00,35.2,33.0,30.24,ENE,63,0.0,1.0,91,0.00,,,0.02,weatherlink.com 1.10,2013-04-25 10:10:00,
2013-04-25 06:25:00,34.8,33.0,30.24,ENE,61,1.0,1.0,93,0.00,,,0.02,weatherlink.com 1.10,2013-04-25 10:25:00,
2013-04-25 06:40:00,34.8,33.0,30.25,ENE,66,0.0,2.0,93,0.00,,,0.02,weatherlink.com 1.10,2013-04-25 10:40:00,
2013-04-25 06:55:00,35.1,33.0,30.25,East,82,0.0,1.0,93,0.00,,,0.02,weatherlink.com 1.10,2013-04-25 10:55:00,
2013-04-25 07:10:00,35.6,34.0,30.25,East,101,0.0,1.0,93,0.00,,,0.02,weatherlink.com 1.10,2013-04-25 11:10:00,
2013-04-25 07:25:00,36.1,34.0,30.25,ENE,77,0.0,1.0,93,0.00,,,0.02,weatherlink.com 1.10,2013-04-25 11:25:00,
2013-04-25 07:40:00,36.6,35.0,30.27,ENE,65,0.0,1.0,93,0.00,,,0.02,weatherlink.com 1.10,2013-04-25 11:40:00,
2013-04-25 07:55:00,37.2,35.0,30.27,ENE,58,2.0,4.0,91,0.00,,,0.02,weatherlink.com 1.10,2013-04-25 11:55:00,
2013-04-25 08:10:00,37.5,35.0,30.27,East,82,3.0,6.0,89,0.00,,,0.02,weatherlink.com 1.10,2013-04-25 12:10:00,
2013-04-25 08:25:00,38.9,35.0,30.28,SE,127,1.0,6.0,87,0.00,,,0.02,weatherlink.com 1.10,2013-04-25 12:25:00,
2013-04-25 08:40:00,39.0,35.0,30.28,NE,43,4.0,6.0,85,0.00,,,0.02,weatherlink.com 1.10,2013-04-25 12:40:00,
2013-04-25 08:55:00,40.1,35.0,30.29,ENE,61,2.0,8.0,82,0.00,,,0.02,weatherlink.com 1.10,2013-04-25 12:55:00,
2013-04-25 09:10:00,40.0,34.0,30.29,NE,54,3.0,8.0,80,0.00,,,0.02,weatherlink.com 1.10,2013-04-25 13:10:00,
2013-04-25 09:25:00,39.8,34.0,30.29,SE,143,0.0,6.0,80,0.00,,,0.02,weatherlink.com 1.10,2013-04-25 13:25:00,
2013-04-25 09:40:00,39.8,33.0,30.29,East,101,0.0,6.0,76,0.00,,,0.02,weatherlink.com 1.10,2013-04-25 13:40:00,
2013-04-25 09:55:00,42.8,35.0,30.29,ESE,102,1.0,10.0,74,0.00,,,0.02,weatherlink.com 1.10,2013-04-25 13:55:00,
2013-04-25 10:10:00,42.3,33.0,30.29,SE,124,3.0,7.0,70,0.00,,,0.02,weatherlink.com 1.10,2013-04-25 14:10:00,
2013-04-25 10:25:00,41.7,33.0,30.29,East,96,3.0,8.0,71,0.00,,,0.02,weatherlink.com 1.10,2013-04-25 14:25:00,
2013-04-25 10:40:00,43.3,33.0,30.29,NE,54,4.0,5.0,68,0.00,,,0.02,weatherlink.com 1.10,2013-04-25 14:40:00,
2013-04-25 10:55:00,44.6,34.0,30.29,NE,49,4.0,6.0,66,0.00,,,0.02,weatherlink.com 1.10,2013-04-25 14:55:00,
2013-04-25 11:10:00,45.4,35.0,30.29,ESE,116,4.0,7.0,66,0.00,,,0.02,weatherlink.com 1.10,2013-04-25 15:10:00,
2013-04-25 11:26:00,46.5,34.0,30.29,ENE,73,3.0,9.0,62,0.00,,,0.02,weatherlink.com 1.10,2013-04-25 15:26:00,
2013-04-25 11:41:00,46.0,33.0,30.29,East,99,0.0,9.0,61,0.00,,,0.02,weatherlink.com 1.10,2013-04-25 15:41:00,
2013-04-25 11:56:00,47.0,32.0,30.29,NE,34,7.0,10.0,56,0.00,,,0.02,weatherlink.com 1.10,2013-04-25 15:56:00,
2013-04-25 12:11:00,47.8,35.0,30.29,NNW,335,4.0,12.0,62,0.00,,,0.02,weatherlink.com 1.10,2013-04-25 16:11:00,
2013-04-25 12:26:00,48.7,33.0,30.29,ESE,109,2.0,10.0,54,0.00,,,0.02,weatherlink.com 1.10,2013-04-25 16:26:00,
2013-04-25 12:41:00,49.0,32.0,30.28,East,91,1.0,12.0,52,0.00,,,0.02,weatherlink.com 1.10,2013-04-25 16:41:00,
2013-04-25 12:56:00,50.6,32.0,30.28,SE,125,2.0,14.0,49,0.00,,,0.02,weatherlink.com 1.10,2013-04-25 16:56:00,
2013-04-25 13:11:00,49.8,31.0,30.27,ESE,102,3.0,12.0,48,0.00,,,0.02,weatherlink.com 1.10,2013-04-25 17:11:00,
2013-04-25 13:26:00,50.3,32.0,30.27,ENE,72,6.0,15.0,49,0.00,,,0.02,weatherlink.com 1.10,2013-04-25 17:26:00,
2013-04-25 13:41:00,51.7,33.0,30.27,East,83,5.0,13.0,50,0.00,,,0.02,weatherlink.com 1.10,2013-04-25 17:41:00,
2013-04-25 13:56:00,52.6,33.0,30.27,NE,56,5.0,11.0,48,0.00,,,0.02,weatherlink.com 1.10,2013-04-25 17:56:00,
2013-04-25 14:11:00,52.5,35.0,30.27,NNW,338,6.0,11.0,52,0.00,,,0.02,weatherlink.com 1.10,2013-04-25 18:11:00,
2013-04-25 14:26:00,53.1,32.0,30.26,North,356,6.0,9.0,44,0.00,,,0.02,weatherlink.com 1.10,2013-04-25 18:26:00,
2013-04-25 14:41:00,53.5,32.0,30.25,ESE,102,2.0,12.0,45,0.00,,,0.02,weatherlink.com 1.10,2013-04-25 18:41:00,
2013-04-25 14:56:00,53.8,32.0,30.25,ENE,60,11.0,12.0,43,0.00,,,0.02,weatherlink.com 1.10,2013-04-25 18:56:00,
2013-04-25 15:11:00,54.5,33.0,30.25,ENE,72,5.0,13.0,44,0.00,,,0.02,weatherlink.com 1.10,2013-04-25 19:11:00,
2013-04-25 15:26:00,54.7,31.0,30.24,ENE,61,5.0,11.0,41,0.00,,,0.02,weatherlink.com 1.10,2013-04-25 19:26:00,
2013-04-25 15:41:00,55.8,32.0,30.23,NE,50,6.0,11.0,41,0.00,,,0.02,weatherlink.com 1.10,2013-04-25 19:41:00,
2013-04-25 15:56:00,56.5,32.0,30.22,ENE,70,1.0,11.0,39,0.00,,,0.02,weatherlink.com 1.10,2013-04-25 19:56:00,
2013-04-25 16:11:00,56.0,30.0,30.22,ESE,107,5.0,17.0,37,0.00,,,0.02,weatherlink.com 1.10,2013-04-25 20:11:00,
2013-04-25 16:26:00,56.5,33.0,30.22,East,84,3.0,16.0,42,0.00,,,0.02,weatherlink.com 1.10,2013-04-25 20:26:00,
2013-04-25 16:41:00,57.0,29.0,30.21,ESE,118,4.0,13.0,35,0.00,,,0.02,weatherlink.com 1.10,2013-04-25 20:41:00,
2013-04-25 16:56:00,57.3,30.0,30.21,East,79,4.0,18.0,36,0.00,,,0.02,weatherlink.com 1.10,2013-04-25 20:56:00,
2013-04-25 17:11:00,57.8,32.0,30.21,NE,44,1.0,10.0,38,0.00,,,0.02,weatherlink.com 1.10,2013-04-25 21:11:00,
2013-04-25 17:26:00,57.9,28.0,30.22,ENE,67,2.0,10.0,32,0.00,,,0.02,weatherlink.com 1.10,2013-04-25 21:26:00,
2013-04-25 17:41:00,56.5,28.0,30.22,ENE,58,8.0,10.0,34,0.00,,,0.02,weatherlink.com 1.10,2013-04-25 21:41:00,
2013-04-25 17:56:00,55.8,28.0,30.23,ESE,120,3.0,11.0,35,0.00,,,0.02,weatherlink.com 1.10,2013-04-25 21:56:00,
2013-04-25 18:13:00,55.9,28.0,30.24,ENE,75,2.0,8.0,35,0.00,,,0.02,weatherlink.com 1.10,2013-04-25 22:13:00,
2013-04-25 18:33:00,56.1,29.0,30.24,SE,129,2.0,10.0,36,0.00,,,0.02,weatherlink.com 1.10,2013-04-25 22:33:00,
2013-04-25 18:52:00,55.6,29.0,30.24,ESE,105,2.0,12.0,37,0.00,,,0.02,weatherlink.com 1.10,2013-04-25 22:52:00,
2013-04-25 19:10:00,54.8,29.0,30.25,SE,137,3.0,13.0,38,0.00,,,0.02,weatherlink.com 1.10,2013-04-25 23:10:00,
2013-04-25 19:28:00,54.2,31.0,30.25,NE,51,2.0,8.0,41,0.00,,,0.02,weatherlink.com 1.10,2013-04-25 23:28:00,
2013-04-25 19:46:00,53.6,31.0,30.26,ENE,77,5.0,8.0,42,0.00,,,0.02,weatherlink.com 1.10,2013-04-25 23:46:00,
2013-04-25 20:06:00,53.1,30.0,30.27,ENE,61,7.0,11.0,42,0.00,,,0.02,weatherlink.com 1.10,2013-04-26 00:06:00,
2013-04-25 20:24:00,52.8,31.0,30.27,ESE,108,2.0,7.0,43,0.00,,,0.02,weatherlink.com 1.10,2013-04-26 00:24:00,
2013-04-25 20:42:00,52.4,31.0,30.29,ENE,57,4.0,8.0,44,0.00,,,0.02,weatherlink.com 1.10,2013-04-26 00:42:00,
2013-04-25 21:04:00,51.8,31.0,30.30,ENE,64,5.0,9.0,46,0.00,,,0.02,weatherlink.com 1.10,2013-04-26 01:04:00,
2013-04-25 21:20:00,51.4,32.0,30.31,ESE,115,0.0,5.0,48,0.00,,,0.02,weatherlink.com 1.10,2013-04-26 01:20:00,
2013-04-25 21:38:00,51.2,34.0,30.32,ENE,75,1.0,17.0,53,0.00,,,0.02,weatherlink.com 1.10,2013-04-26 01:38:00,
2013-04-25 21:56:00,50.5,34.0,30.33,ENE,75,0.0,7.0,54,0.00,,,0.02,weatherlink.com 1.10,2013-04-26 01:56:00,
2013-04-25 22:16:00,49.4,37.0,30.35,SE,125,9.0,14.0,62,0.00,,,0.02,weatherlink.com 1.10,2013-04-26 02:16:00,
2013-04-25 22:34:00,47.1,38.0,30.36,SSW,205,3.0,15.0,71,0.00,,,0.02,weatherlink.com 1.10,2013-04-26 02:34:00,
2013-04-25 22:52:00,45.9,38.0,30.37,South,179,1.0,11.0,75,0.00,,,0.02,weatherlink.com 1.10,2013-04-26 02:52:00,
2013-04-25 23:12:00,44.9,38.0,30.38,South,172,3.0,9.0,78,0.00,,,0.02,weatherlink.com 1.10,2013-04-26 03:12:00,
2013-04-25 23:30:00,44.6,38.0,30.39,SSW,211,0.0,4.0,78,0.00,,,0.02,weatherlink.com 1.10,2013-04-26 03:30:00,
2013-04-25 23:48:00,44.4,36.0,30.39,SE,146,3.0,7.0,73,0.00,,,0.02,weatherlink.com 1.10,2013-04-26 03:48:00,